Regional Weather Roundup
Issued by NWS

Home | Current Version | Previous Version | Text Only | Print | Product List | Glossary Off
Versions: 1 2 3 4 5 6 7 8 9 10 11 12 13 14 15 16 17 18 19 20 21 22 23 24 25 26 27 28 29 30 31 32 33 34 35 36 37 38 39 40 41 42 43 44 45 46 47 48 49 50

195
ASUS43 KTOP 240908
RWRKS

WEATHER ROUNDUP FOR KANSAS
NATIONAL WEATHER SERVICE GOODLAND KS
400 AM CDT WED AUG 24 2016

NOTE:  "FAIR" INDICATES FEW OR NO CLOUDS BELOW 12,000 FEET WITH NO
SIGNIFICANT WEATHER AND/OR OBSTRUCTIONS TO VISIBILITY.

KSZ001>006-013>018-027>032-041>047-241000-
NORTHWEST KANSAS

CITY           SKY/WX    TMP DP  RH WIND       PRES   REMARKS
GOODLAND       CLOUDY    63  50  62 W6        30.12R
HAYS           PTCLDY    73  55  53 N6        29.94S
HILL CITY      MOCLDY    65  60  84 CALM      29.97R
RUSSELL        PTCLDY    72  66  81 S10       29.91S
$$

KSZ061>065-074>080-084>089-241000-
SOUTHWEST KANSAS

CITY           SKY/WX    TMP DP  RH WIND       PRES   REMARKS
DODGE CITY     MOCLDY    74  62  66 SW12      29.95S
ELKHART          N/A     70  51  51 NW9         N/A
GARDEN CITY    CLOUDY    69  62  78 SW6       29.95F
GREAT BEND     PTCLDY    73  61  64 SW7       29.95R
LIBERAL        PTCLDY    73  59  60 S18       29.97F
PRATT          MOCLDY    75  62  64 SW14      29.94S
$$

KSZ066>073-081>083-090>101-241000-
SOUTHEAST KANSAS

CITY           SKY/WX    TMP DP  RH WIND       PRES   REMARKS
CHANUTE        CLOUDY    78  71  79 S12       29.98S
COFFEYVILLE    CLOUDY    80  70  71 S12       29.99R
HUTCHINSON     CLOUDY    75  62  64 S7        29.93S
MEDICINE LODGE   N/A     77  63  61 S7        29.93F
NEWTON         MOCLDY    77  65  66 S13       29.95R
PARSONS        CLOUDY    79  70  74 S7        30.00S
WICHITA INTL   MOCLDY    76  69  79 S10       29.94S
WICHITA JABRA  PTCLDY    77  70  79 S9        29.94S
WICHITA MCCONL PTCLDY    76  68  77 SW12      29.95S
WINFIELD       PTCLDY    79  68  69 S13       29.97S
$$

KSZ007>012-019>026-033>040-048>060-102>105-241000-
NORTHEAST KANSAS

CITY           SKY/WX    TMP DP  RH WIND       PRES   REMARKS
CONCORDIA      PTCLDY    74  67  78 S14       29.89R
EMPORIA        PTCLDY    76  70  82 S14       29.94S
LAWRENCE       CLOUDY    74  71  91 N10       29.96R
MANHATTAN      PTCLDY    74  71  91 CALM      29.93R
MARYSVILLE     CLOUDY    66  63  88 E13G18    29.95F
OLATHE IND     CLOUDY    76  71  85 S12       29.96R
OLATHE EXE     CLOUDY    75  70  84 SW13      29.95S
SALINA         CLOUDY    78  63  59 SW6       29.93R
TOPEKA BILLARD MOCLDY    74  69  85 N20       29.98R
TOPEKA FORBES  MOCLDY    79  71  76 S8        29.94S
$$




USA.gov is the U.S. government's official web portal to all federal, state and local government web resources and services.